MDT,Max TemperatureF,Mean TemperatureF,Min TemperatureF,Max Dew PointF,MeanDew PointF,Min DewpointF,Max Humidity, Mean Humidity, Min Humidity, Max Sea Level PressureIn, Mean Sea Level PressureIn, Min Sea Level PressureIn, Max VisibilityMiles, Mean VisibilityMiles, Min VisibilityMiles, Max Wind SpeedMPH, Mean Wind SpeedMPH, Max Gust SpeedMPH,PrecipitationIn, CloudCover, Events, WindDirDegrees
2013-9-1,73,62,51,52,46,41,82,59,31,30.47,30.42,30.38,10,10,10,14,5,21,0.00,3,Rain-Thunderstorm,125
2013-9-2,73,64,55,50,45,39,82,52,29,30.51,30.47,30.41,10,10,10,14,5,20,0.00,3,Rain-Thunderstorm,200
2013-9-3,73,63,53,50,45,37,72,56,27,30.53,30.50,30.47,10,10,10,10,4,20,0.00,4,Thunderstorm,168
2013-9-4,77,66,55,55,48,41,88,60,31,30.57,30.53,30.49,10,10,10,15,4,23,0.01,3,Rain-Thunderstorm,151
2013-9-5,75,64,53,52,46,39,94,58,29,30.59,30.54,30.48,10,10,7,15,4,23,0.02,6,Rain-Thunderstorm,137
2013-9-6,77,64,51,46,39,32,72,44,21,30.56,30.51,30.43,10,10,10,16,6,22,0.00,3,Rain,136
2013-9-7,75,64,53,46,40,32,67,46,22,30.47,30.43,30.36,10,10,10,9,5,17,0.00,4,Rain-Thunderstorm,125
2013-9-8,69,60,50,54,48,36,100,73,28,30.43,30.35,30.29,10,10,3,15,4,22,0.05,4,Rain-Thunderstorm,186
2013-9-9,62,56,50,54,50,46,100,90,59,30.31,30.27,30.20,10,8,0,13,3,20,0.33,7,Fog-Rain-Thunderstorm,214
2013-9-10,59,54,50,52,49,45,100,86,63,30.33,30.29,30.24,10,9,0,8,2,,0.04,7,Fog-Rain,116
2013-9-11,64,57,50,52,49,43,100,84,45,30.41,30.37,30.33,10,8,0,12,2,20,0.26,5,Rain-Thunderstorm,194
2013-9-12,62,53,44,52,45,37,100,77,48,30.45,30.39,30.33,10,9,3,15,5,21,0.32,5,Rain-Thunderstorm,153
2013-9-13,62,53,44,46,44,39,100,74,42,30.41,30.28,30.20,10,10,3,13,4,22,0.27,3,Rain-Thunderstorm,109
2013-9-14,59,52,44,48,44,41,100,75,59,30.31,30.24,30.19,10,9,1,22,4,28,0.52,7,Rain-Thunderstorm,121
2013-9-15,59,52,44,50,45,41,100,86,59,30.40,30.34,30.26,10,10,4,12,4,17,0.14,6,Rain-Thunderstorm,123
2013-9-16,62,53,44,50,45,41,94,79,45,30.45,30.41,30.38,10,10,5,15,5,21,0.05,3,Rain-Thunderstorm,130
2013-9-17,64,56,48,45,42,36,87,58,39,30.41,30.31,30.20,10,10,10,22,5,33,0.00,4,Rain-Thunderstorm,129
2013-9-18,64,56,48,46,43,36,93,66,34,30.26,30.22,30.19,10,10,5,16,5,28,0.05,6,Rain-Thunderstorm,157
2013-9-19,62,53,44,46,39,32,93,63,36,30.34,30.28,30.22,10,10,10,15,5,20,0.00,2,Rain-Thunderstorm,185
2013-9-20,64,52,39,37,32,21,76,51,23,30.38,30.34,30.30,10,10,10,12,5,,0.00,0,,148
2013-9-21,64,55,46,43,36,32,71,49,30,30.34,30.27,30.14,10,10,10,16,5,24,0.00,5,Thunderstorm,145
2013-9-22,59,46,33,46,40,34,100,80,50,30.16,30.03,29.92,10,8,1,18,8,29,0.79,7,Rain-Snow-Thunderstorm,122
2013-9-23,51,42,33,36,34,30,100,77,50,30.36,30.18,29.99,10,9,1,12,4,22,0.12,4,Rain-Snow,249
2013-9-24,66,49,32,34,21,9,93,41,12,30.38,30.31,30.20,10,10,10,21,6,29,0.00,0,,139
2013-9-25,62,56,50,30,24,19,40,29,20,30.20,30.03,29.90,10,10,10,28,12,41,0.00,0,,150
2013-9-26,59,52,46,30,22,18,44,29,20,29.99,29.96,29.90,10,10,10,28,9,48,0.00,2,,141
2013-9-27,51,42,32,39,31,21,100,75,42,30.25,30.05,29.90,10,9,0,26,9,43,0.13,6,Rain-Snow,186
2013-9-28,51,38,26,32,24,1,93,62,15,30.41,30.33,30.24,10,10,10,17,5,22,0.00,0,,169
2013-9-29,60,46,33,30,19,12,81,37,16,30.41,30.36,30.31,10,10,10,16,5,22,0.00,0,,160
2013-9-30,66,52,39,32,26,19,61,39,20,30.34,30.27,30.22,10,10,10,15,6,20,0.00,0,,161